Cheboygan, MI

1:01 AM EDT on May 27, 2017 (GMT -0400)
Cheboygan

Weather History for KSLH - March, 2013

Change the Weather History Date:

Friday, March 22, 2013

  Actual Average (KMCD) Record (KMCD)
Temperature  
Mean Temperature 26 °F -  
Max Temperature 32 °F 34 °F 54 °F (1987)
Min Temperature 21 °F 21 °F -4 °F (1989)
Degree Days  
Heating Degree Days 38    
Moisture  
Dew Point 21 °F    
Average Humidity 76    
Maximum Humidity 85    
Minimum Humidity 65    
Precipitation  
Precipitation 0.00 in - - ()
Sea Level Pressure  
Sea Level Pressure 29.93 in    
Wind  
Wind Speed 10 mph (WNW)    
Max Wind Speed 16 mph    
Max Gust Speed 21 mph    
Visibility 10 miles    
Events      
Averages and records for this station are not official NWS values.
T = Trace of Precipitation, MM = Missing Value Source: NWS Daily Summary

Daily Weather History Graph

Daily Weather History Graph

Search for Another Location

Airport or City:

Trip Planner

Search our weather history database for the weather conditions in past years. The results will help you decide how hot, cold, wet, or windy it might be!

Date:

Astronomy

Mar. 22, 2013 Rise Set
Actual Time 7:36 AM EDT 7:53 PM EDT
Civil Twilight 7:07 AM EDT 8:23 PM EDT
Nautical Twilight 6:32 AM EDT 8:58 PM EDT
Astronomical Twilight 5:56 AM EDT 9:34 PM EDT
Moon 3:07 PM EDT (3/22) 4:49 AM EDT (3/22)
Length of Visible Light 13h 16m
Length of Day
12h 16m
Waxing Gibbous, 77% of the Moon is Illuminated
Mar 22
Waxing Gibbous
Mar 27
Full
Apr 3
Last Quarter
Apr 10
New
Apr 18
First Quarter

Hourly Weather History & Observations

Time (EDT) Temp. Windchill Dew Point Humidity Pressure Visibility Wind Dir Wind Speed Gust Speed Precip Events Conditions
12:15 AM 22.1 °F 10.6 °F 16.7 °F 80% 29.88 in 10.0 mi WNW 11.5 mph - N/A   Clear
12:35 AM 22.1 °F 10.0 °F 16.7 °F 80% 29.88 in 10.0 mi WNW 12.7 mph 17.3 mph N/A   Clear
12:55 AM 21.7 °F 10.2 °F 16.5 °F 80% 29.87 in 10.0 mi West 11.5 mph 17.3 mph N/A   Scattered Clouds
1:15 AM 21.9 °F 11.0 °F 16.7 °F 80% 29.87 in 10.0 mi West 10.4 mph - N/A   Mostly Cloudy
1:35 AM 23.0 °F 11.7 °F 17.8 °F 80% 29.87 in 10.0 mi West 11.5 mph - N/A   Overcast
1:54 AM 23.5 °F 12.4 °F 18.5 °F 81% 29.87 in 10.0 mi West 11.5 mph - N/A   Overcast
2:15 AM 23.9 °F 12.9 °F 18.7 °F 80% 29.87 in 10.0 mi West 11.5 mph - N/A   Overcast
2:35 AM 24.4 °F 13.0 °F 18.9 °F 79% 29.87 in 10.0 mi West 12.7 mph 16.1 mph N/A   Overcast
2:55 AM 24.8 °F 14.6 °F 19.4 °F 80% 29.87 in 10.0 mi West 10.4 mph - N/A   Overcast
3:15 AM 25.2 °F 13.9 °F 19.4 °F 79% 29.87 in 10.0 mi West 12.7 mph - N/A   Overcast
3:35 AM 25.5 °F 14.9 °F 19.9 °F 79% 29.87 in 10.0 mi WNW 11.5 mph - N/A   Overcast
3:55 AM 25.7 °F 16.4 °F 20.1 °F 79% 29.87 in 10.0 mi WNW 9.2 mph - N/A   Overcast
4:15 AM 25.7 °F 15.7 °F 20.3 °F 80% 29.88 in 10.0 mi West 10.4 mph - N/A   Overcast
4:35 AM 26.2 °F 17.1 °F 20.5 °F 79% 29.88 in 10.0 mi West 9.2 mph - N/A   Overcast
4:55 AM 26.2 °F 17.8 °F 21.0 °F 81% 29.88 in 10.0 mi West 8.1 mph - N/A   Overcast
5:15 AM 26.4 °F 16.6 °F 21.0 °F 80% 29.88 in 10.0 mi West 10.4 mph - N/A   Overcast
5:35 AM 26.2 °F 17.1 °F 20.8 °F 80% 29.88 in 10.0 mi WNW 9.2 mph - N/A   Overcast
5:55 AM 25.9 °F 19.2 °F 20.3 °F 79% 29.89 in 10.0 mi WNW 5.8 mph - N/A   Overcast
6:15 AM 25.7 °F 16.4 °F 20.3 °F 80% 29.89 in 10.0 mi NW 9.2 mph - N/A   Overcast
6:35 AM 25.3 °F 16.0 °F 20.3 °F 81% 29.90 in 10.0 mi WNW 9.2 mph - N/A   Overcast
6:55 AM 25.0 °F 17.1 °F 20.3 °F 82% 29.90 in 10.0 mi NW 6.9 mph - N/A   Overcast
7:15 AM 24.8 °F 15.3 °F 20.3 °F 83% 29.91 in 10.0 mi NW 9.2 mph - N/A   Overcast
7:34 AM 24.8 °F 15.3 °F 20.3 °F 83% 29.91 in 10.0 mi NNW 9.2 mph - N/A   Overcast
7:55 AM 24.6 °F 16.7 °F 20.3 °F 84% 29.92 in 10.0 mi NW 6.9 mph - N/A   Overcast
8:15 AM 24.6 °F 17.7 °F 20.7 °F 85% 29.93 in 10.0 mi WNW 5.8 mph - N/A   Overcast
8:35 AM 24.8 °F 16.1 °F 20.8 °F 85% 29.93 in 10.0 mi NW 8.1 mph - N/A   Overcast
8:55 AM 24.8 °F 16.9 °F 20.7 °F 84% 29.93 in 10.0 mi NW 6.9 mph - N/A   Overcast
9:15 AM 25.2 °F 18.3 °F 20.8 °F 84% 29.93 in 10.0 mi NW 5.8 mph - N/A   Overcast
9:35 AM 25.3 °F 18.5 °F 20.5 °F 82% 29.92 in 10.0 mi NNW 5.8 mph - N/A   Overcast
9:55 AM 25.7 °F 17.1 °F 20.7 °F 81% 29.93 in 10.0 mi NW 8.1 mph - N/A   Overcast
10:15 AM 26.1 °F 19.4 °F 20.3 °F 79% 29.93 in 10.0 mi NNW 5.8 mph - N/A   Overcast
10:34 AM 26.4 °F 16.6 °F 20.3 °F 78% 29.93 in 10.0 mi WNW 10.4 mph - N/A   Overcast
10:55 AM 26.8 °F 17.7 °F 21.2 °F 79% 29.93 in 10.0 mi NW 9.2 mph - N/A   Overcast
11:15 AM 27.1 °F 19.7 °F 21.2 °F 78% 29.93 in 10.0 mi NW 6.9 mph - N/A   Overcast
11:35 AM 28.8 °F 23.7 °F 21.2 °F 73% 29.93 in 10.0 mi WNW 4.6 mph - N/A   Overcast
11:55 AM 29.8 °F 23.0 °F 21.2 °F 70% 29.93 in 10.0 mi WNW 6.9 mph - N/A   Overcast
12:15 PM 29.8 °F 21.5 °F 22.1 °F 73% 29.93 in 10.0 mi WNW 9.2 mph - N/A   Overcast
12:35 PM 30.2 °F 22.6 °F 21.7 °F 71% 29.93 in 10.0 mi WNW 8.1 mph - N/A   Overcast
12:55 PM 31.5 °F 23.5 °F 22.1 °F 68% 29.93 in 10.0 mi West 9.2 mph - N/A   Overcast
1:15 PM 31.5 °F 24.2 °F 21.7 °F 67% 29.92 in 10.0 mi WNW 8.1 mph - N/A   Mostly Cloudy
1:35 PM 32.0 °F 24.2 °F 22.1 °F 67% 29.91 in 10.0 mi NW 9.2 mph - N/A   Scattered Clouds
1:55 PM 32.0 °F 27.5 °F 22.1 °F 67% 29.92 in 10.0 mi West 4.6 mph - N/A   Mostly Cloudy
2:15 PM 32.0 °F 24.2 °F 21.7 °F 66% 29.92 in 10.0 mi NNW 9.2 mph 16.1 mph N/A   Overcast
2:35 PM 32.5 °F 24.8 °F 22.8 °F 67% 29.92 in 10.0 mi NNW 9.2 mph 16.1 mph N/A   Overcast
2:55 PM 32.5 °F 24.2 °F 22.1 °F 65% 29.92 in 10.0 mi West 10.4 mph 17.3 mph N/A   Overcast
3:15 PM 32.7 °F 23.9 °F 22.6 °F 66% 29.92 in 10.0 mi West 11.5 mph - N/A   Overcast
3:35 PM 32.2 °F 23.2 °F 22.1 °F 66% 29.92 in 10.0 mi WNW 11.5 mph - N/A   Overcast
3:55 PM 32.4 °F 23.5 °F 22.6 °F 67% 29.93 in 10.0 mi WNW 11.5 mph - N/A   Overcast
4:15 PM 32.2 °F 22.7 °F 22.3 °F 67% 29.93 in 10.0 mi WNW 12.7 mph - N/A   Overcast
4:34 PM 32.0 °F 22.1 °F 22.1 °F 67% 29.93 in 10.0 mi WNW 13.8 mph - N/A   Overcast
4:55 PM 32.2 °F 22.7 °F 21.7 °F 65% 29.93 in 10.0 mi West 12.7 mph 18.4 mph N/A   Overcast
5:14 PM 32.0 °F 21.6 °F 21.6 °F 65% 29.93 in 10.0 mi WNW 15.0 mph 20.7 mph N/A   Overcast
5:35 PM 32.2 °F 21.4 °F 22.3 °F 67% 29.93 in 10.0 mi WNW 16.1 mph - N/A   Overcast
5:55 PM 32.0 °F 21.6 °F 22.5 °F 68% 29.94 in 10.0 mi WNW 15.0 mph 20.7 mph N/A   Overcast
6:15 PM 32.0 °F 21.6 °F 22.8 °F 69% 29.94 in 10.0 mi WNW 15.0 mph - N/A   Overcast
6:35 PM 32.0 °F 21.2 °F 22.8 °F 69% 29.95 in 10.0 mi West 16.1 mph - N/A   Overcast
6:54 PM 31.8 °F 22.3 °F 22.8 °F 69% 29.95 in 10.0 mi WNW 12.7 mph - N/A   Overcast
7:15 PM 31.6 °F 21.6 °F 22.8 °F 70% 29.96 in 10.0 mi WNW 13.8 mph - N/A   Overcast
7:35 PM 31.5 °F 21.8 °F 22.6 °F 70% 29.96 in 10.0 mi WNW 12.7 mph 19.6 mph N/A   Overcast
7:55 PM 30.9 °F 20.7 °F 22.1 °F 70% 29.97 in 10.0 mi NW 13.8 mph 18.4 mph N/A   Overcast
8:15 PM 30.2 °F 20.8 °F 21.4 °F 70% 29.98 in 10.0 mi NW 11.5 mph - N/A   Overcast
8:35 PM 29.1 °F 20.6 °F 20.8 °F 71% 29.98 in 10.0 mi WNW 9.2 mph - N/A   Mostly Cloudy
8:55 PM 28.2 °F 18.9 °F 20.5 °F 73% 29.99 in 10.0 mi WNW 10.4 mph - N/A   Scattered Clouds
9:15 PM 27.3 °F 18.4 °F 20.3 °F 75% 30.01 in 10.0 mi NW 9.2 mph - N/A   Clear
9:35 PM 27.0 °F 18.0 °F 20.3 °F 76% 30.01 in 10.0 mi WNW 9.2 mph - N/A   Clear
9:55 PM 27.0 °F 20.5 °F 21.0 °F 78% 30.02 in 10.0 mi WNW 5.8 mph - N/A   Mostly Cloudy
10:15 PM 26.4 °F 17.3 °F 19.9 °F 77% 30.02 in 10.0 mi WNW 9.2 mph - N/A   Scattered Clouds
10:35 PM 25.7 °F 17.1 °F 19.6 °F 78% 30.03 in 10.0 mi WNW 8.1 mph - N/A   Clear
10:55 PM 24.6 °F 17.7 °F 19.4 °F 81% 30.03 in 10.0 mi WNW 5.8 mph - N/A   Clear
11:15 PM 24.1 °F 17.0 °F 19.2 °F 82% 30.03 in 10.0 mi WNW 5.8 mph - N/A   Clear
11:35 PM 23.5 °F 16.4 °F 19.2 °F 84% 30.03 in 10.0 mi West 5.8 mph - N/A   Clear
11:55 PM 23.5 °F 17.6 °F 19.4 °F 84% 30.03 in 10.0 mi WNW 4.6 mph - N/A   Mostly Cloudy